This is the latest recevied weather packets stored in our database for station/object KO4APQ. If no packets are shown the sender has not sent any weather packets the latest 10 day(s).
| Time | Temp. | Humidity | Pressure | Rain* | Wind** | Luminosity | Snow |
|---|---|---|---|---|---|---|---|
| 1778090042 | 23.33° C | 72% | 1015.1 hPa | 0 mm | - | 967 W/m² | - |
| 1778089739 | 23.33° C | 73% | 1014.8 hPa | 0 mm | - | 997 W/m² | - |
| 1778089437 | 22.78° C | 78% | 1015.1 hPa | 0 mm | - | 774 W/m² | - |
| 1778089134 | 22.22° C | 78% | 1015.1 hPa | 0 mm | - | 370 W/m² | - |
| 1778088830 | 22.22° C | 79% | 1015.2 hPa | 0 mm | - | 363 W/m² | - |
| 1778088528 | 22.22° C | 78% | 1015.3 hPa | 0 mm | - | 314 W/m² | - |
| 1778088224 | 21.67° C | 82% | 1015.4 hPa | 0 mm | - | 310 W/m² | - |
| 1778087922 | 21.11° C | 80% | 1015.5 hPa | 0 mm | - | 332 W/m² | - |
| 1778087618 | 21.11° C | 81% | 1015.4 hPa | 0 mm | - | 313 W/m² | - |
| 1778087317 | 21.11° C | 85% | 1015.7 hPa | 0 mm | - | 262 W/m² | - |
| 1778087012 | 21.11° C | 84% | 1016 hPa | 0 mm | - | 222 W/m² | - |
| 1778086712 | 21.11° C | 83% | 1015.8 hPa | 0 mm | - | 197 W/m² | - |
| 1778086409 | 21.11° C | 81% | 1015.8 hPa | 0 mm | - | 206 W/m² | - |
| 1778086105 | 20.56° C | 80% | 1015.7 hPa | 0 mm | - | 234 W/m² | - |
| 1778085802 | 20.56° C | 81% | 1015.9 hPa | 0 mm | - | 155 W/m² | - |
| 1778085499 | 20.56° C | 81% | 1015.8 hPa | 1.78 mm | - | 163 W/m² | - |
| 1778085194 | 20.56° C | 77% | 1015.7 hPa | 3.56 mm | - | 200 W/m² | - |
| 1778084890 | 20.56° C | 78% | 1015.5 hPa | 1.78 mm | - | 198 W/m² | - |
| 1778084588 | 21.11° C | 74% | 1015.4 hPa | 0 mm | - | 164 W/m² | - |
| 1778084285 | 21.11° C | 73% | 1016.9 hPa | 0 mm | - | 130 W/m² | - |
| 1778083982 | 21.67° C | 71% | 1016.7 hPa | 0 mm | - | 249 W/m² | - |
| 1778083680 | 21.67° C | 70% | 1016.9 hPa | 0 mm | - | 134 W/m² | - |
| 1778083376 | 21.11° C | 71% | 1016.6 hPa | 0 mm | - | 390 W/m² | - |
| 1778083075 | 21.11° C | 72% | 1016.6 hPa | 0 mm | - | 261 W/m² | - |
| 1778082772 | 21.11° C | 72% | 1016.1 hPa | 0 mm | - | 264 W/m² | - |
* Rain latest hour (hover to see other rain measurements)
** Current wind speed in m/s (hover to see current wind gust speed)